Regional Weather Roundup
Issued by NWS

Home | Current Version | Previous Version | Text Only | Print | Product List | Glossary On
Versions: 1 2 3 4 5 6 7 8 9 10 11 12 13 14 15 16 17 18 19 20 21 22 23 24 25 26 27 28 29 30 31 32 33 34 35 36 37 38 39 40 41 42 43 44 45 46 47 48 49 50
000
ASUS45 KABQ 080710
RWRNM
NEW MEXICO REGIONAL WEATHER ROUNDUP
NATIONAL WEATHER SERVICE ALBUQUERQUE NM
1200 AM MST THU DEC 08 2016

NOTE: "FAIR" MEANS FEW OR NO CLOUDS BELOW 12,000 FEET AGL WITH NO
       SIGNIFICANT WEATHER OR OBSTRUCTIONS TO VISION.

      THIS PRODUCT IS RELEASED AS TWO VERSIONS.  ONE VERSION NEAR
      THE TOP OF THE HOUR CONTAINING PRELIMINARY DATA FROM ALBUQUERQUE
      AND OTHER STATIONS.  A FINAL VERSION WITH ADDITIONAL DATA IS
      ISSUED ABOUT 10 MINUTES AFTER THE HOUR.

NMZ501-503-504-510>518-080800-
NORTHWEST PLATEAU/NORTHCENTRAL MOUNTAINS

CITY           SKY/WX    TMP DP  RH WIND       PRES   REMARKS
FARMINGTON     FAIR      16   7  67 NE7       30.24S WCI   6
LOS ALAMOS     MOCLDY    22  11  63 S10       30.24R WCI  11
SANTA FE       FAIR      19   9  65 S13       30.26R WCI   6
TAOS           FAIR      16   3  57 E6        30.23S WCI   7
ANGEL FIRE     FAIR       8   3  82 S9        30.20R WCI  -6

$$
NMZ402-403-502-505>509-080800-
WESTCENTRAL MOUNTAINS/SOUTHWEST MOUNTAINS

CITY           SKY/WX    TMP DP  RH WIND       PRES   REMARKS
GALLUP         FAIR      19  12  74 CALM      30.22F
GRANTS         CLOUDY    23  15  73 NW7       30.24S WCI  14

$$
NMZ407-409-411-412-080800-
SOUTHERN DESERTS

CITY           SKY/WX    TMP DP  RH WIND       PRES   REMARKS
DEMING         FAIR      41  34  76 E3        30.15R
LAS CRUCES     FAIR      47  31  52 S8        30.16S
HOLLOMAN AFB   FAIR      45  30  56 W8        30.18R
T OR C         FAIR      40  21  46 N8        30.16R WCI  34

$$
NMZ519>523-080800-
CENTRAL VALLEYS/CENTRAL HIGHLANDS

CITY           SKY/WX    TMP DP  RH WIND       PRES   REMARKS
ALBUQUERQUE    MOCLDY    31  14  49 E21       30.23R WCI  18
DOUBLE EAGLE   MOCLDY    26  14  59 E9        30.23R WCI  17
MORIARTY ARPT  CLOUDY    19  11  69 SE5       30.32S WCI  13
CLINES CORNERS CLOUDY    11   9  92 E16       30.28S WCI  -6
BELEN          CLOUDY    32  15  51 W7        30.23S WCI  25
SOCORRO        FAIR      37  19  49 N9        30.22R WCI  30

$$
NMZ524>526-539-540-080800-
SOUTHCENTRAL MOUNTAINS

CITY           SKY/WX    TMP DP  RH WIND       PRES   REMARKS
RUIDOSO        CLOUDY    19  10  68 SE16      30.29S WCI   5

$$
NMZ527>531-080800-
NORTHEAST HIGHLANDS/NORTHEAST PLAINS

CITY           SKY/WX    TMP DP  RH WIND       PRES   REMARKS
LAS VEGAS      CLOUDY    10   6  84 NE3       30.30F
RATON          MOCLDY     9   3  77 NE3       30.31R
CLAYTON        CLOUDY    14  11  87 NE10      30.40S WCI   1

$$
NMZ532>537-080800-
EASTCENTRAL PLAINS

CITY           SKY/WX    TMP DP  RH WIND       PRES   REMARKS
TUCUMCARI      CLOUDY    23  14  68 NE9       30.44S WCI  13
CANNON AFB     CLOUDY    22  19  87 NE16      30.41R WCI   8
CLOVIS AIRPORT CLOUDY    21  12  68 NE17      30.41S WCI   7

$$
NMZ028-029-538-080800-
SOUTHEAST PLAINS

CITY           SKY/WX    TMP DP  RH WIND       PRES   REMARKS
ROSWELL        CLOUDY    32  19  58 N12       30.41R WCI  23
ARTESIA        CLOUDY    32  23  69 N15       30.40R WCI  22
CARLSBAD       NOT AVBL


$$



USA.gov is the U.S. government's official web portal to all federal, state and local government web resources and services.